Regional Weather Roundup
Issued by NWS Upton, NY

Home | Current Version | Previous Version | Text Only | Print | Product List | Glossary On
Versions: 1 2 3 4 5 6 7 8 9 10 11 12 13 14 15 16 17 18 19 20 21 22 23 24 25 26 27
000
ASUS41 KOKX 272309
RWROKX

REGIONAL WEATHER ROUNDUP
NATIONAL WEATHER SERVICE NEW YORK NY
700 PM EDT SAT MAY 27 2017

NOTE: "FAIR" INDICATES FEW OR NO CLOUDS BELOW 12,000 FEET WITH NO
SIGNIFICANT WEATHER AND/OR OBSTRUCTIONS TO VISIBILITY.

NYZ071-072-176-178-NJZ106-104-280000-
NEW YORK CITY METRO AREA

CITY           SKY/WX    TMP DP  RH WIND       PRES   REMARKS
Central Park   CLOUDY    70  57  63 VRB3      29.90R
Wall St Helipt CLOUDY    70  57  63 CALM      29.89R
Bronx Bot Gard   N/A     66  55  68 CALM      29.90S
LaGuardia APRT CLOUDY    69  56  62 SE6       29.87R
Kennedy INTL   CLOUDY    66  58  75 SE8       29.89S
Breezy Point     N/A     61 N/A N/A S9          N/A
Newark/Liberty PTSUNNY   72  55  55 W8        29.87R
Teterboro      CLOUDY    71  54  54 E3        29.86R
$$

NYZ177-179-078>081-280000-
LONG ISLAND NEW YORK

CITY           SKY/WX    TMP DP  RH WIND       PRES   REMARKS
Jones Beach      N/A     59 N/A N/A E7          N/A
Matinecock PT  NOT AVBL
Farmingdale    CLOUDY    61  56  83 SE9       29.91R
MacArthur/ISP  CLOUDY    62  53  72 SE9       29.91R
Shirley        CLOUDY    60  55  83 SE6       29.93R
Mt Sinai Harb    N/A    N/A N/A N/A S10         N/A
Westhampton    CLOUDY    59  49  69 S5        29.94R
East Hampton     N/A     58  49  72 S3        29.91R
Montauk          N/A     62  50  64 SW5       29.92R
$$

NYZ052-065-067-280000-
HUDSON VALLEY

CITY           SKY/WX    TMP DP  RH WIND       PRES   REMARKS
White Plains   CLOUDY    65  55  70 E8        29.89R
Larchmont Harb   N/A     63 N/A N/A N6          N/A
Croton O-T Hud   N/A     70 N/A N/A E3          N/A
Newburgh       CLOUDY    66  59  77 VRB6      29.90R
Montgomery     CLOUDY    68  57  68 E3        29.88R
Poughkeepsie   CLOUDY    69  55  60 W3        29.87R
Albany         PTSUNNY   70  49  47 CALM      29.87R
$$

NJZ001-105-106-008-010-013-015-019>022-104-280000-
NEW JERSEY

CITY           SKY/WX    TMP DP  RH WIND       PRES   REMARKS
Newark/Liberty PTSUNNY   72  55  55 W8        29.87R
Teterboro      CLOUDY    71  54  54 E3        29.86R
Caldwell       PTSUNNY   73  53  49 CALM      29.88S
Somerville     SUNNY     72  54  53 CALM      29.85S
Linden           N/A     72  53  51 W7        29.88R
Perth Amboy      N/A     72 N/A N/A W7          N/A
Sussex         LGT RAIN  69  57  65 CALM      29.90R
Andover          N/A     68  58  70 N3        29.88S
Trenton        PTSUNNY   72  56  57 W6        29.87F
Millville      CLOUDY    64  63  96 W3        29.90S
Atlantic City  NOT AVBL
Wrightstown    PTSUNNY   70  56  61 SW6       29.85F
Toms River     CLOUDY    69  60  73 SE5       29.89S
Belmar         MOSUNNY   69  58  67 SE6       29.90R
$$

PAZ047>061-062-071-280000-
EASTERN PENNSYLVANIA

CITY           SKY/WX    TMP DP  RH WIND       PRES   REMARKS
Philadelphia   PTSUNNY   71  57  61 SW9       29.89F
Allentown      MOSUNNY   73  55  53 W8        29.87S
Scranton       CLOUDY    69  54  58 W3        29.89R
$$

CTZ002-004>006-009-010-012-RIZ004-006-007-MAZ004-011-015-280000-
SOUTHERN NEW ENGLAND
 IN CT

CITY           SKY/WX    TMP DP  RH WIND       PRES   REMARKS
Bradley INTL   CLOUDY    67  50  54 SW6       29.88R
Hartford       CLOUDY    66  52  60 SW8       29.88R
Danbury        CLOUDY    63  55  75 S5        29.90R
Wtrbury/Oxford PTSUNNY   63  52  67 S7        29.91R
Bridgeport     CLOUDY    63  55  75 S10       29.89R
Meriden        CLOUDY    64  53  67 S6        29.90R
New Haven      CLOUDY    61  54  77 S7        29.91R
Chester        CLOUDY    61  54  77 CALM      29.91R
Groton         CLOUDY    60  52  74 SW6       29.90R
Wilimantic     MOSUNNY   68  52  56 S3        29.89R

 IN RI

CITY           SKY/WX    TMP DP  RH WIND       PRES   REMARKS
Providence     PTSUNNY   65  53  65 S9        29.89R
Block Island   CLOUDY    60  53  77 SW9       29.91R
Westerly       PTSUNNY   61  52  72 SW8       29.92R
 IN MA

CITY           SKY/WX    TMP DP  RH WIND       PRES   REMARKS
Boston         CLOUDY    57  48  72 E14       29.90R
Worcester      CLOUDY    64  49  57 SW9       29.89R
Westfield      CLOUDY    67  52  58 S6        29.88R
Provincetown   CLOUDY    54  46  74 E9        29.91F
Nantucket      PTCLDY    53  47  79 E8        29.91S
$$

ANZ330-335-338-340-345-350-353-355-280000-
COASTAL MARINE OBSERVATIONS


STATION/POSITION TIME  SKY/WX   TEMP    WIND        PRES    VSBY  WAVE
                                AIR SEA DIR/SP/G                  HT/PER
                 (UTC)          (F)     (DEG/KT/KT) (MB)    (MI)  (FT/S)
NY HARB ENTRANCE 2150            60 59  190/ 10/ 10 1011.9          2/ 8
20 S FIRE ISLAND 2250            59 59  130/ 10/ 10 1012.2          2/ 8
GREAT SOUTH BAY  NOT AVBL
23 SSW MONTAUK P 2150            58 57              1012.9          3/ 6
15 E BARNEGAT LI 2230               60                N/A           2/ 8
HUDSON CANYON    2150            60 60  160/  4/  6 1012.6          3/ 8
KINGS POINT      2230            67 60  180/  5/  7 1011.6
EXECUTION ROCKS  2245            62                   N/A
CENTRAL LI SOUND 2215            58     150/  8/  8   N/A           1
EASTERN LI SOUND NOT AVBL
ROBBINS REEF     2230            66     150/ 10/ 11 1011.9
$$


>>>>>>>>>>>>>>>>>>>>>>>>>>>> KEY <<<<<<<<<<<<<<<<<<<<<<<<<<<
>                                                          <
>     SKY/WX - Sky Condition/Present Weather               <
>     TMP    - Temperature in Fahrenheit                   <
>     DP     - Dew Point in Fahrenheit                     <
>     RH     - Relative Humidity in Percent                <
>     WIND   - Direction (from) and Speed in MPH           <
>     PRES   - Mean Sea Level Pressure (inches of Hg)      <
>     WCI    - Wind Chill Index                            <
>     VSB    - VISIBILITY IN MILES                         <
>     HX     - HEAT INDEX                                  <
>     TC     - TEMPERATURE IN CELSIUS                      <
>     VRB    - VARIABLE WIND DIRECTION                     <
>                                                          <
>>>>>>>>>>>>>>>>>>>>>>>>>>>> KEY <<<<<<<<<<<<<<<<<<<<<<<<<<<




USA.gov is the U.S. government's official web portal to all federal, state and local government web resources and services.